FW2439 Weather Reports


time (UTC)temp
C
wind
direction
speed
KPH
gust
KPH
rain 1hr
cm
rain 24hr
cm
rain mn
cm
humidity
%
barometer
mb
20260508221507 25 235 3.2 11.3 0.00 0.00 0.00 49 1011.8
20260508220002 25 244 1.6 9.7 0.00 0.00 0.00 50 1012.0
20260508214504 25 162 1.6 6.4 0.00 0.00 0.00 47 1011.9
20260508213059 24 172 8.0 17.7 0.00 0.00 0.00 48 1011.8
20260508211558 25 232 3.2 12.9 0.00 0.00 0.00 48 1011.9
20260508210054 25 240 1.6 9.7 0.00 0.00 0.00 48 1011.9
20260508204555 25 282 0.0 8.0 0.00 0.00 0.00 50 1012.1
20260508203049 24 137 0.0 9.7 0.00 0.00 0.00 50 1012.2
20260508201549 24 211 3.2 11.3 0.00 0.00 0.00 52 1012.3
20260508200103 24 307 1.6 9.7 0.00 0.00 0.00 46 1012.5
20260508194541 24 236 0.0 4.8 0.00 0.00 0.00 47 1012.7
20260508193051 23 163 1.6 8.0 0.00 0.00 0.00 49 1012.8
20260508191537 23 154 3.2 8.0 0.00 0.00 0.00 47 1013.3
20260508190033 23 167 1.6 6.4 0.00 0.00 0.00 50 1013.7
20260508184531 23 229 1.6 6.4 0.00 0.00 0.00 51 1014.2
20260508183029 22 193 6.4 17.7 0.00 0.00 0.00 51 1014.1
20260508181536 22 250 1.6 9.7 0.00 0.00 0.00 48 1014.4
20260508180029 22 214 3.2 9.7 0.00 0.00 0.00 50 1014.7
20260508174522 22 112 1.6 11.3 0.00 0.00 0.00 49 1015.0
20260508173021 22 174 4.8 11.3 0.00 0.00 0.00 51 1015.2
20260508171518 21 248 3.2 16.1 0.00 0.00 0.00 51 1015.5
20260508170013 21 212 1.6 14.5 0.00 0.00 0.00 53 1015.9
20260508164513 21 178 1.6 11.3 0.00 0.00 0.00 50 1016.4
20260508163013 21 215 0.0 16.1 0.00 0.00 0.00 52 1016.6
20260508161510 21 359 1.6 6.4 0.00 0.00 0.00 53 1016.6
20260508160006 21 246 1.6 8.0 0.00 0.00 0.00 55 1016.8
20260508154504 20 224 0.0 4.8 0.00 0.00 0.00 55 1016.8
20260508153003 20 230 1.6 6.4 0.00 0.00 0.00 57 1017.0
20260508151609 20 319 1.6 14.5 0.00 0.00 0.00 59 1017.2
20260508150059 20 203 3.2 9.7 0.00 0.00 0.00 58 1017.4
20260508144609 19 222 0.0 4.8 0.00 0.00 0.00 62 1017.4
20260508143105 19 253 0.0 3.2 0.00 0.00 0.00 65 1017.5
20260508141604 18 233 1.6 6.4 0.00 0.00 0.00 66 1017.8
20260508140050 18 256 0.0 1.6 0.00 0.00 0.00 76 1018.1
20260508134557 16 256 0.0 1.6 0.00 0.00 0.00 87 1018.0
20260508133050 12 256 0.0 1.6 0.00 0.00 0.00 99 1018.2
20260508131535 11 269 0.0 1.6 0.00 0.00 0.00 100 1018.2
20260508130034 9 269 0.0 0.0 0.00 0.00 0.00 99 1018.1
20260508124534 8 269 0.0 0.0 0.00 0.00 0.00 99 1018.2
20260508123043 7 269 0.0 0.0 0.00 0.00 0.00 99 1018.1
20260508121530 6 269 0.0 0.0 0.00 0.00 0.00 98 1018.1
20260508120024 5 269 0.0 0.0 0.00 0.00 0.00 98 1017.8
20260508114523 5 269 0.0 0.0 0.00 0.00 0.00 98 1017.6
20260508113023 5 269 0.0 0.0 0.00 0.00 0.00 98 1017.5
20260508111527 5 269 0.0 0.0 0.00 0.00 0.00 97 1017.1
20260508110025 5 269 0.0 0.0 0.00 0.00 0.00 97 1017.2
20260508104520 5 269 0.0 0.0 0.00 0.00 0.00 97 1017.2
20260508103018 5 269 0.0 0.0 0.00 0.00 0.00 97 1017.2
20260508101517 5 269 0.0 0.0 0.00 0.00 0.00 97 1017.1
20260508100017 5 269 0.0 0.0 0.00 0.00 0.00 97 1016.8
20260508094514 5 269 0.0 0.0 0.00 0.00 0.00 97 1016.6
20260508093017 5 269 0.0 0.0 0.00 0.00 0.00 97 1016.6
20260508091511 6 269 0.0 0.0 0.00 0.00 0.00 97 1016.6
20260508090016 6 269 0.0 0.0 0.00 0.00 0.00 97 1016.6
20260508084508 6 269 0.0 0.0 0.00 0.00 0.00 97 1016.5
20260508083008 6 269 0.0 0.0 0.00 0.00 0.00 97 1016.7
20260508081504 6 269 0.0 0.0 0.00 0.00 0.00 97 1016.6
20260508080004 6 269 0.0 0.0 0.00 0.00 0.00 97 1016.7
20260508074501 7 269 0.0 1.6 0.00 0.00 0.00 97 1016.8
20260508073111 7 269 0.0 0.0 0.00 0.00 0.00 96 1016.8
20260508071605 7 269 0.0 0.0 0.00 0.00 0.00 96 1016.8
20260508070054 7 269 0.0 0.0 0.00 0.00 0.00 96 1017.0
20260508064559 7 269 0.0 0.0 0.00 0.00 0.00 96 1017.2
20260508063057 7 269 0.0 0.0 0.00 0.00 0.00 96 1017.3
20260508061550 8 269 0.0 0.0 0.00 0.00 0.00 96 1017.4
20260508054546 8 269 0.0 0.0 0.00 0.00 0.00 96 1017.5
20260508053044 8 269 0.0 0.0 0.00 0.00 0.00 96 1017.4
20260508051559 8 269 0.0 0.0 0.00 0.00 0.00 95 1017.5
20260508050039 8 269 0.0 0.0 0.00 0.00 0.00 95 1017.5
20260508044547 8 269 0.0 0.0 0.00 0.00 0.00 95 1017.4
20260508043039 8 269 0.0 0.0 0.00 0.00 0.00 94 1017.5
20260508041538 9 269 0.0 0.0 0.00 0.00 0.00 94 1017.4
20260508040048 9 269 0.0 0.0 0.00 0.00 0.00 94 1017.1
20260508034546 9 269 0.0 0.0 0.00 0.00 0.00 93 1017.4
20260508033044 10 269 0.0 0.0 0.00 0.00 0.00 93 1017.7
20260508031540 10 269 0.0 0.0 0.00 0.00 0.00 92 1017.5
20260508030036 10 269 0.0 0.0 0.00 0.00 0.00 92 1017.5
20260508024559 10 269 0.0 0.0 0.00 0.00 0.00 91 1017.1
20260508023038 11 269 0.0 0.0 0.00 0.00 0.00 89 1017.1
20260508021536 11 269 0.0 0.0 0.00 0.00 0.00 87 1016.9
20260508020038 11 269 0.0 0.0 0.00 0.00 0.00 87 1016.8
20260508014537 12 269 0.0 0.0 0.00 0.00 0.00 85 1016.8
20260508013035 12 269 0.0 0.0 0.00 0.00 0.00 81 1016.8
20260508011533 13 269 0.0 0.0 0.00 0.00 0.00 78 1016.5
20260508010047 14 269 0.0 0.0 0.00 0.00 0.00 76 1016.6
20260508004543 15 269 0.0 0.0 0.00 0.00 0.00 72 1016.5
20260508003030 16 269 0.0 0.0 0.00 0.00 0.00 67 1016.5
20260508001538 17 269 0.0 0.0 0.00 0.00 0.00 63 1016.0
20260508000029 17 269 0.0 1.6 0.00 0.00 0.00 60 1016.1
20260507234532 18 269 0.0 3.2 0.00 0.00 0.00 54 1016.0
20260507233028 18 232 0.0 3.2 0.00 0.00 0.00 55 1015.9
20260507231526 18 236 0.0 4.8 0.00 0.00 0.00 52 1016.1
20260507230026 20 342 0.0 4.8 0.00 0.00 0.00 51 1016.1
20260507224524 20 246 0.0 3.2 0.00 0.00 0.00 51 1016.0
20260507223023 20 246 0.0 4.8 0.00 0.00 0.00 51 1016.0